Location: Lake Sonoma
(38.7200°N, 123.0564°W)
Time: 13:25:34
(UTC-07:00)

ISS - Visible Passes

Search period start: 02 August 2015 00:00
Search period end: 12 August 2015 00:00
Orbit: 401 x 403 km, 51.6° (Epoch: 02 August)

Date Brightness Start Highest point End Pass type
(mag) Time Alt. Az. Time Alt. Az. Time Alt. Az.
02 Aug -1.4 04:48:15 16° S 04:48:15 16° S 04:49:10 10° SSE visible
02 Aug -2.4 21:21:18 10° WSW 21:24:28 51° NW 21:27:40 10° NE visible
02 Aug 0.0 22:59:58 10° NW 23:01:31 13° NNW 23:03:02 10° N visible
03 Aug -0.3 22:05:57 10° WNW 22:08:13 17° NNW 22:10:27 10° NNE visible
04 Aug -0.9 21:12:11 10° W 21:14:58 25° NNW 21:17:45 10° NNE visible
05 Aug -0.1 21:57:37 10° NW 21:58:55 12° NNW 22:00:11 10° N visible
06 Aug -0.4 21:03:29 10° WNW 21:05:35 16° NNW 21:07:38 10° NNE visible
07 Aug 0.0 23:26:18 10° N 23:26:51 11° N 23:26:51 11° N visible
08 Aug -0.2 20:55:13 10° NNW 20:56:14 11° NNW 20:57:13 10° N visible
09 Aug -0.2 23:15:52 10° NNW 23:16:46 13° N 23:16:46 13° N visible
10 Aug -0.5 22:23:16 10° N 22:24:33 12° NNE 22:25:26 11° NNE visible
11 Aug -0.4 23:05:38 10° NNW 23:06:42 17° NNW 23:06:42 17° NNW visible
